Погода в Чакино

Россия / Тамбовская область     52°14′01″N   41°57′07″E
В апреле 2022 года жителям России запретили посещать сайт meteo.paraplan.net по решению Генеральной прокуратуры. Аудитория сайта уменьшилась в 10 раз. Владельцы сайта не видят смысла в поддержке погодного сервера в таких условиях. Сайт будет закрыт в октябре.
темп.,
°C
ветер,
м/с
пор.,
м/с
влажн.,
%
обл.,
%
осадки,
мм/ч
давл.,
гПа
погр.,
м
25 сентября, вс
вс2500:00+8ююз511865 0.0 1007293
03:00+7ююз411905 0.0 1007274
06:00+6ю51194100 0.0 1006361
09:00+8ююз61085100 0.1 10051163
12:00+8юз5887100 0.6 1005848
15:00+8зюз5979100 0.7 1007860
18:00+8зюз61084100 0.0 1008840
21:00+8зюз61086100 0.1 1008956
26 сентября, пн
пн2600:00+7з71189100 0.6 10081187
03:00+7з71287100 0.8 10091225
06:00+8з71285100 0.1 1010931
09:00+9з61279100 0.1 10111002
12:00+11з7125998 0.0 10121440
15:00+12з7104799 0.0 10131712
18:00+11з4953100 0.0 1014443
21:00+10юз3760100 0.0 1014213
27 сентября, вт
вт2700:00+10зюз2564100 0.0 1014146
03:00+10зюз1165100 0.0 101417
06:00+9ююв2383100 0.6 1014101
09:00+8в4897100 7.4 1013341
12:00+9в4797100 5.9 1012375
15:00+12юв2489100 6.5 1011261
18:00+11вюв1196100 0.5 101122
21:00+12вюв2496100 0.9 101186
28 сентября, ср
ср2800:00+11ююв3586100 0.0 101076
03:00+12вюв3785100 0.0 1009149
06:00+11вюв51093100 0.7 1007241
09:00+14юв51187100 0.8 1006452
12:00+17ююв61174100 0.8 1004410
15:00+16ююв61281100 4.8 1004472
18:00+14ю369192 1.4 1004166
21:00+14ююв348995 1.8 100470
29 сентября, чт
чт2900:00+12ююз349397 0.0 100676
03:00+12зюз3594100 0.0 1007113
06:00+11з379596 0.0 1008150
09:00+14зсз46780 0.0 1010367
12:00+18зсз55605 0.0 1012993
15:00+18зсз455549 0.0 10131294
18:00+14сз35720 0.0 101572
21:00+11с36875 0.0 1018133